Location: Unspecified
(0.0000°N, 0.0000°E)
Time: 13:05:25
(UTC+00:00)

LilacSat-2 - Visible Passes

Search period start: 19 June 2021 00:00
Search period end: 29 June 2021 00:00
Orbit: 512 x 533 km, 97.5° (Epoch: 18 June)

Date Brightness Start Highest point End Pass type
(mag) Time Alt. Az. Time Alt. Az. Time Alt. Az.
19 Jun ? 05:08:15 10° NNE 05:11:48 42° ESE 05:15:21 10° S visible
20 Jun ? 04:55:59 10° NE 04:59:08 26° ESE 05:02:18 10° SSE visible
20 Jun ? 18:25:38 10° WSW 18:26:45 11° WSW 18:27:53 10° W visible
21 Jun ? 04:44:00 10° ENE 04:46:28 17° ESE 04:48:55 10° SE visible
22 Jun ? 04:32:58 10° E 04:33:47 11° ESE 04:34:37 10° ESE visible
25 Jun ? 05:25:57 10° NNE 05:29:40 89° E 05:33:25 10° S visible
26 Jun ? 05:13:22 10° NNE 05:17:00 52° ESE 05:20:39 10° S visible
27 Jun ? 05:00:58 10° NE 05:04:19 32° ESE 05:07:40 10° SSE visible
28 Jun ? 04:48:50 10° NE 04:51:38 20° ESE 04:54:27 10° SSE visible
